Massena, NY

12:49 AM EDT on July 26, 2017 (GMT -0400)
Massena International-Richards

Weather History for KMSS - March, 2014

Change the Weather History Date:

Wednesday, March 5, 2014

  Actual Average Record
Temperature  
Mean Temperature 1 °F 23 °F  
Max Temperature 15 °F 33 °F 64 °F (1964)
Min Temperature -14 °F 13 °F -17 °F (2015)
Degree Days  
Heating Degree Days 64 42  
Month to date heating degree days 302 213  
Since 1 July heating degree days 6471 6200  
Cooling Degree Days 0 0  
Month to date cooling degree days 0 0  
Year to date cooling degree days 0 0  
Moisture  
Dew Point 2 °F    
Average Humidity 75    
Maximum Humidity 92    
Minimum Humidity 58    
Precipitation  
Precipitation T in 0.07 in 0.80 in (1966)
Month to date precipitation 0.01 0.33  
Year to date precipitation 2.75 4.28  
Sea Level Pressure  
Sea Level Pressure 30.43 in    
Wind  
Wind Speed 6 mph (NE)    
Max Wind Speed 13 mph    
Max Gust Speed -    
Visibility 5 miles    
Events Snow    
T = Trace of Precipitation, MM = Missing Value Source: NWS Daily Summary

Daily Weather History Graph

Daily Weather History Graph

Search for Another Location

Airport or City:

Trip Planner

Search our weather history database for the weather conditions in past years. The results will help you decide how hot, cold, wet, or windy it might be!

Date:

Astronomy

Mar. 05, 2014 Rise Set
Actual Time 6:30 AM EST 5:52 PM EST
Civil Twilight 6:00 AM EST 6:21 PM EST
Nautical Twilight 5:26 AM EST 6:55 PM EST
Astronomical Twilight 4:52 AM EST 7:29 PM EST
Moon 8:41 AM EST (3/5) 11:12 PM EST (3/5)
Length of Visible Light 12h 20m
Length of Day
11h 22m
Waxing Crescent, 23% of the Moon is Illuminated
Mar 5
Waxing Crescent
Mar 8
First Quarter
Mar 16
Full
Mar 23
Last Quarter
Mar 30
New

Hourly Weather History & Observations

Time (EST) Temp. Windchill Dew Point Humidity Pressure Visibility Wind Dir Wind Speed Gust Speed Precip Events Conditions
12:53 AM 10.9 °F 2.9 °F 7.0 °F 84% 30.33 in 4.0 mi NNE 4.6 mph - 0.00 in Snow Light Snow
1:53 AM 10.9 °F 2.9 °F 8.1 °F 88% 30.34 in 3.0 mi NE 4.6 mph - 0.00 in Snow Light Snow
2:01 AM 12.0 °F 2.7 °F 8.1 °F 84% 30.31 in 2.5 mi NNE 5.8 mph - 0.00 in Snow Light Snow
2:20 AM 10.9 °F 2.9 °F 8.1 °F 88% 30.30 in 1.8 mi NE 4.6 mph - 0.00 in Snow Light Snow
2:40 AM 10.9 °F 4.7 °F 8.1 °F 88% 30.30 in 2.0 mi NE 3.5 mph - 0.00 in Snow Light Snow
2:53 AM 12.0 °F 5.9 °F 8.1 °F 84% 30.33 in 2.5 mi ENE 3.5 mph - 0.00 in Snow Light Snow
3:05 AM 10.9 °F 2.9 °F 7.0 °F 84% 30.30 in 3.0 mi NE 4.6 mph - 0.00 in Snow Light Snow
3:34 AM 10.9 °F 1.4 °F 7.0 °F 84% 30.30 in 2.0 mi NE 5.8 mph - 0.00 in Snow Light Snow
3:43 AM 10.9 °F 2.9 °F 7.0 °F 84% 30.31 in 1.8 mi NE 4.6 mph - 0.00 in Snow Light Snow
3:53 AM 10.9 °F 1.4 °F 7.0 °F 84% 30.34 in 2.5 mi NE 5.8 mph - 0.00 in Snow Light Snow
3:59 AM 10.9 °F 1.4 °F 7.0 °F 84% 30.31 in 3.0 mi NNE 5.8 mph - 0.00 in Snow Light Snow
4:44 AM 10.9 °F -0.8 °F 6.1 °F 81% 30.32 in 2.5 mi NE 8.1 mph - 0.00 in Snow Light Snow
4:53 AM 10.9 °F -0.8 °F 6.1 °F 81% 30.35 in 1.8 mi ENE 8.1 mph - 0.00 in Snow Light Snow
4:59 AM 10.9 °F -0.8 °F 6.1 °F 81% 30.32 in 3.0 mi ENE 8.1 mph - 0.00 in Snow Light Snow
5:14 AM 10.9 °F -2.6 °F 6.1 °F 81% 30.33 in 4.0 mi ENE 10.4 mph - 0.00 in Snow Light Snow
5:53 AM 10.0 °F -3.7 °F 6.1 °F 84% 30.36 in 6.0 mi NE 10.4 mph - 0.00 in   Overcast
6:53 AM 8.1 °F -5.3 °F 3.9 °F 83% 30.38 in 4.0 mi NE 9.2 mph - N/A   Overcast
7:29 AM 7.0 °F -5.7 °F 3.0 °F 84% 30.36 in 2.5 mi ENE 8.1 mph - N/A   Overcast
7:44 AM 7.0 °F -5.7 °F 3.0 °F 84% 30.36 in 3.0 mi NE 8.1 mph - N/A   Overcast
7:53 AM 7.0 °F -8.3 °F 1.9 °F 80% 30.40 in 2.5 mi NE 11.5 mph - N/A   Haze
8:01 AM 6.1 °F -9.5 °F 1.9 °F 83% 30.37 in 1.8 mi NE 11.5 mph - 0.00 in Snow Light Snow
8:13 AM 6.1 °F -10.9 °F 1.9 °F 83% 30.38 in 1.5 mi NNE 13.8 mph - 0.00 in Snow Light Snow
8:18 AM 6.1 °F -10.2 °F 1.9 °F 83% 30.39 in 1.2 mi NNE 12.7 mph - 0.00 in Snow Light Snow
8:29 AM 7.0 °F -9.8 °F 1.9 °F 80% 30.39 in 1.5 mi NNE 13.8 mph - 0.00 in Snow Light Snow
8:53 AM 7.0 °F -7.5 °F 1.9 °F 80% 30.44 in 1.5 mi NE 10.4 mph - 0.00 in Snow Light Snow
9:01 AM 7.0 °F -7.5 °F 1.9 °F 80% 30.41 in 2.0 mi NE 10.4 mph - 0.00 in Snow Light Snow
9:13 AM 8.1 °F -6.2 °F 1.9 °F 76% 30.41 in 4.0 mi ENE 10.4 mph - 0.00 in   Haze
9:36 AM 8.1 °F -5.3 °F 1.9 °F 76% 30.42 in 6.0 mi ENE 9.2 mph - 0.00 in   Haze
9:53 AM 9.0 °F -6.6 °F 1.9 °F 73% 30.45 in 6.0 mi ENE 12.7 mph - 0.00 in   Haze
10:38 AM 10.0 °F -5.9 °F 3.0 °F 73% 30.43 in 4.0 mi NNE 13.8 mph - N/A   Haze
10:53 AM 10.0 °F -5.2 °F 3.0 °F 73% 30.47 in 7.0 mi NNE 12.7 mph - N/A   Mostly Cloudy
11:05 AM 10.9 °F -3.4 °F 3.0 °F 70% 30.44 in 10.0 mi NNE 11.5 mph - N/A   Scattered Clouds
11:53 AM 12.0 °F -2.7 °F 3.0 °F 67% 30.48 in 10.0 mi NE 12.7 mph - N/A   Partly Cloudy
12:53 PM 14.0 °F 1.2 °F 3.9 °F 64% 30.49 in 10.0 mi NE 10.4 mph - N/A   Partly Cloudy
1:53 PM 14.0 °F 0.5 °F 3.0 °F 62% 30.50 in 10.0 mi NNE 11.5 mph - N/A   Partly Cloudy
2:53 PM 14.0 °F 3.9 °F 1.9 °F 59% 30.52 in 10.0 mi NE 6.9 mph - N/A   Clear
3:53 PM 14.0 °F 3.9 °F 1.9 °F 59% 30.54 in 10.0 mi NNE 6.9 mph - N/A   Clear
4:53 PM 14.0 °F 8.2 °F 1.0 °F 56% 30.56 in 10.0 mi East 3.5 mph - N/A   Clear
5:53 PM 12.0 °F 5.9 °F -0.0 °F 59% 30.58 in 10.0 mi ESE 3.5 mph - N/A   Clear
6:53 PM -0.9 °F - -6.0 °F 79% 30.61 in 10.0 mi Calm Calm - N/A   Clear
7:53 PM -2.0 °F - -7.1 °F 79% 30.62 in 10.0 mi Calm Calm - N/A   Clear
8:53 PM -5.1 °F - -9.0 °F 83% 30.63 in 10.0 mi Calm Calm - N/A   Clear
9:53 PM -7.1 °F -15.9 °F -11.9 °F 79% 30.65 in 9.0 mi SSW 3.5 mph - N/A   Clear
10:53 PM -9.9 °F -19.2 °F -13.0 °F 86% 30.67 in 10.0 mi SW 3.5 mph - N/A   Clear
11:53 PM -11.9 °F - -18.0 °F 74% 30.67 in 10.0 mi Calm Calm - N/A   Clear